SL-16 DEB, 22362

Orbit data source: Space-Track

SL-16 DEB, 22362 is space debris in LEO originally from a launch on Fri, 25 Dec 1992 UTC launched from the Tyuratam Missile And Space Complex (TTMTR). Debris objects in space refer to the collection of defunct objects orbiting the Earth. Examples of debris include non-operational satellites, rocket bodies, and fragments generated from explosions, collisions, or faulty payload assembly.

Loading next visibility...
Identifier
22362, 1992-093BB
Orbit
LEO
Country
Flag of CISCIS
Related business
Manufacturer
Unknown
Mission
Spacecraft
Bus & Motor
Unknown
Mass
Unknown
Launch date (UTC)
1992-12-25 (33 years ago)
Launch vehicle
Unknown
Launch site
Tyuratam Missile And Space Complex (TTMTR)
Object type
Payload
Rocket body
Debris
Shape & HBR
Unknown shape, 0.1 m
Radar Cross Section
Small (<0.1 m²)

Expand to show TLE details & history
Last TLE update: 1 day ago

TLE from 1 day ago
0 SL-16 DEB
1 22362U 92093BB  25304.75092353  .00001810  00000-0  13411-2 0  9998
2 22362  70.8931 212.0398 0183208 122.8995 270.4813 13.88857404649415
Epoch: 2025-10-31T18:01Z
TLE epoch observation values (Epoch: 2025-10-31T18:01:19.792Z)
Latitude
29.44013°
Longitude
-87.36837°
Altitude
937.088 km
Speed
7.386 km/s
True Right ascension
14h 53m 01s
True Declination
29° 17' 48"
Sunlit
Object was in daylight at epoch
Visualization orbit readout
Latitude
Unknown
Longitude
Unknown
Altitude
Unknown
Speed
Unknown
Apparent Right ascension
Unknown
Apparent Declination
Unknown
Sunlit
N/A
Visualization observer readout
Local Sidereal Time
14:00:50
Azimuth
Unknown
Elevation
Unknown
Doppler factor
Unknown
Orbital elements
Apogee altitude
1,064.5 km
Perigee altitude
796.696 km
Semi-major axis
7,308.735 km
Eccentricity
0.01832
Inclination
70.8931°
RAAN
212.0398°
Arg. of periapsis
122.8995°
True anomaly
268.38203°
Mean anomaly
270.4813°
Eccentric anomaly
269.43165°
Mean motion
3.4736 °/min
Orbital period
103.64 mins
BSTAR
0.0013411
Loading maneuver chart data...
Computing Atmospheric mass density...
Loading historical data...
Loading historical data...
Loading historical data...
Loading historical data...
Loading historical data...
Loading historical data...
Loading historical data...

Documentation

Showing up to 5 results
|